QPF
0.00 0.00 0.00 0.00 0.00 0.00 0.00 0.00 0.00 0.00 0.00 0.00 0.00 0.00 0.00 0.00 0.02 0.00 0.00 0.00 0.00 0.00 0.00 0.00 0.00 0.00 0.00 0.00 0.00 0.00 0.00 0.00 0.00 0.00 0.00 0.00 0.00 0.00 0.00 0.00 0.00 0.00 0.00 0.00 0.00 0.00 0.00 0.00 0.00
0.00 0.00 0.00 0.00 0.00 0.00 0.00 0.00 0.00 0.00 0.00 0.00 0.00 0.00 0.00 0.00 0.00 0.00 0.00 0.00 0.00 0.00 0.00 0.00 0.00 0.00 0.00 0.00 0.00 0.00 0.00 0.00 0.00 0.00 0.00 0.00 0.00 0.00 0.00 0.00 0.00 0.00 0.00 0.00 0.00 0.00 0.00 0.00 0.00
0.00 0.00 0.00 0.00 0.00 0.00 0.00 0.00 0.00 0.00 0.00 0.00 0.00 0.00 0.00 0.00 0.00 0.00 0.00 0.00 0.00 0.00 0.00 0.00 0.00 0.00 0.00 0.00 0.00 0.00 0.00 0.00 0.00 0.00 0.00 0.00 0.00 0.00 0.00 0.00 0.00 0.00 0.00 0.00 0.00 0.00 0.00 0.00 0.00
0.00 0.00 0.00 0.00 0.00 0.00 0.00 0.00 0.00 0.00 0.00 0.00 0.00 0.00 0.00 0.00 0.00 0.00 0.00 0.00 0.00 0.00 0.00 0.00 0.00 0.00 0.00 0.00 0.00 0.00 0.00 0.00 0.00 0.00 0.00 0.00 0.00 0.00 0.00 0.00 0.00 0.00 0.00 0.00 0.00 0.00 0.00 0.00 0.00
0.00 0.00 0.00 0.00 0.00 0.00 0.00 0.00 0.00 0.00 0.00 0.00 0.00 0.00 0.00 0.00 0.00 0.00 0.00 0.00 0.00 0.00 0.00 0.00 0.00 0.00 0.00 0.00 0.00 0.00 0.00 0.00 0.00 0.00 0.00 0.00 0.00 0.00 0.00 0.00 0.00 0.00 0.00 0.00 0.00 0.00 0.00 0.00 0.00
0.00 0.00 0.00 0.00 0.00 0.00 0.00 0.00 0.00 0.00 0.00 0.00 0.00 0.00 0.00 0.00 0.00 0.00 0.00 0.00 0.00 0.00 0.00 0.00 0.00 0.00 0.00 0.00 0.00 0.00 0.00 0.00 0.00 0.00 0.00 0.00 0.00 0.00 0.00 0.00 0.00 0.00 0.00 0.00 0.00 0.00 0.00 0.00 0.00
0.00 0.00 0.00 0.00 0.00 0.00 0.00 0.00 0.00 0.00 0.00 0.00 0.00 0.00 0.00 0.00 0.00 0.00 0.00 0.00 0.00 0.00 0.00 0.00 0.00 0.00 0.00 0.00 0.00 0.00 0.00 0.00 0.00 0.00 0.00 0.00 0.00 0.00 0.00 0.00 0.00 0.00 0.00 0.00 0.00 0.00 0.00 0.00 0.00
0.00 0.00 0.00 0.00 0.00 0.00 0.00 0.00 0.00 0.00 0.00 0.00 0.00 0.00 0.00 0.00 0.00 0.00 0.00 0.00 0.00 0.00 0.00 0.00 0.00 0.00 0.00 0.00 0.00 0.00 0.00 0.00 0.00 0.00 0.00 0.00 0.00 0.00 0.00 0.00 0.00 0.00 0.00 0.00 0.00 0.00 0.00 0.00 0.00
0.00 0.00 0.00 0.00 0.00 0.00 0.00 0.00 0.00 0.00 0.00 0.00 0.00 0.00 0.00 0.00 0.00 0.00 0.00 0.00 0.00 0.00 0.00 0.00 0.00 0.00 0.00 0.00 0.00 0.00 0.00 0.00 0.00 0.00 0.00 0.00 0.00 0.00 0.00 0.00 0.00 0.00 0.00 0.00 0.00 0.00 0.00 0.00 0.00
0.00 0.00 0.00 0.00 0.00 0.00 0.00 0.00 0.00 0.00 0.00 0.00 0.00 0.00 0.00 0.00 0.00 0.00 0.00 0.00 0.00 0.00 0.00 0.00 0.00 0.00 0.00 0.00 0.00 0.00 0.00 0.00 0.00 0.00 0.00 0.00 0.00 0.00 0.00 0.00 0.00 0.00 0.00 0.00 0.00 0.00 0.00 0.00 0.00
0.00 0.00 0.00 0.00 0.00 0.00 0.00 0.00 0.00 0.00 0.00 0.00 0.00 0.00 0.00 0.00 0.00 0.00 0.00 0.00 0.00 0.00 0.00 0.00 0.00 0.00 0.00 0.00 0.00 0.00 0.00 0.00 0.00 0.00 0.00 0.00 0.00 0.00 0.00 0.00 0.00 0.00 0.00 0.00 0.00 0.00 0.00 0.00 0.00
0.00 0.00 0.00 0.00 0.00 0.00 0.00 0.00 0.00 0.00 0.00 0.00 0.00 0.00 0.00 0.00 0.00 0.00 0.00 0.00 0.00 0.00 0.00 0.00 0.00 0.00 0.00 0.00 0.00 0.00 0.00 0.00 0.00 0.00 0.00 0.00 0.00 0.00 0.00 0.00 0.00 0.00 0.00 0.00 0.00 0.00 0.00 0.00 0.00
0.00 0.00 0.00 0.00 0.00 0.00 0.00 0.00 0.00 0.00 0.00 0.00 0.00 0.00 0.00 0.00 0.00 0.00 0.00 0.00 0.00 0.00 0.00 0.00 0.00 0.00 0.00 0.00 0.00 0.00 0.00 0.00 0.00 0.00 0.00 0.00 0.00 0.00 0.00 0.00 0.00 0.00 0.00 0.00 0.00 0.00 0.00 0.00 0.00
0.00 0.00 0.00 0.00 0.00 0.00 0.00 0.00 0.00 0.00 0.00 0.00 0.00 0.00 0.00 0.00 0.00 0.00 0.00 0.00 0.00 0.00 0.00 0.00 0.05 0.02 0.01 0.00 0.00 0.00 0.00 0.00 0.00 0.00 0.00 0.00 0.00 0.00 0.00 0.00 0.00 0.00 0.00 0.00 0.00 0.00 0.00 0.00 0.00
0.00 0.00 0.00 0.00 0.00 0.00 0.00 0.00 0.00 0.00 0.00 0.00 0.00 0.00 0.00 0.00 0.00 0.00 0.00 0.00 0.00 0.01 0.00 0.04 0.09 0.12 0.11 0.02 0.00 0.00 0.00 0.00 0.00 0.00 0.00 0.00 0.00 0.00 0.00 0.00 0.00 0.00 0.00 0.00 0.00 0.00 0.00 0.00 0.00
0.00 0.00 0.00 0.00 0.00 0.00 0.00 0.00 0.00 0.00 0.00 0.00 0.00 0.00 0.00 0.00 0.00 0.00 0.00 0.00 0.00 0.00 0.00 0.01 0.07 0.23 0.16 0.03 0.00 0.00 0.00 0.00 0.00 0.00 0.00 0.00 0.00 0.00 0.00 0.00 0.00 0.00 0.00 0.00 0.00 0.00 0.00 0.00 0.00
0.00 0.00 0.00 0.00 0.00 0.00 0.00 0.00 0.00 0.00 0.00 0.00 0.00 0.00 0.00 0.00 0.00 0.00 0.00 0.00 0.00 0.00 0.00 0.01 0.07 0.11 0.09 0.05 0.00 0.00 0.00 0.00 0.00 0.00 0.00 0.00 0.00 0.00 0.00 0.00 0.00 0.00 0.00 0.00 0.00 0.00 0.00 0.00 0.00
0.00 0.00 0.00 0.00 0.00 0.00 0.00 0.00 0.00 0.00 0.00 0.00 0.00 0.00 0.00 0.00 0.00 0.00 0.00 0.00 0.00 0.00 0.00 0.00 0.01 0.04 0.05 0.01 0.00 0.00 0.00 0.00 0.00 0.00 0.00 0.00 0.00 0.00 0.00 0.00 0.00 0.00 0.00 0.00 0.00 0.00 0.00 0.00 0.00
0.00 0.00 0.00 0.00 0.00 0.00 0.00 0.00 0.00 0.00 0.00 0.00 0.00 0.00 0.00 0.00 0.00 0.00 0.00 0.00 0.01 0.00 0.00 0.00 0.01 0.01 0.01 0.00 0.00 0.00 0.00 0.00 0.00 0.00 0.00 0.00 0.00 0.00 0.00 0.00 0.00 0.00 0.00 0.00 0.00 0.00 0.00 0.00 0.00
0.00 0.00 0.00 0.00 0.00 0.00 0.00 0.00 0.00 0.00 0.00 0.00 0.00 0.00 0.00 0.00 0.00 0.00 0.00 0.01 0.00 0.00 0.00 0.00 0.00 0.00 0.00 0.00 0.00 0.00 0.00 0.00 0.00 0.00 0.00 0.00 0.00 0.00 0.00 0.00 0.00 0.00 0.00 0.00 0.00 0.00 0.00 0.00 0.00
0.00 0.00 0.00 0.00 0.00 0.00 0.00 0.00 0.00 0.00 0.00 0.00 0.00 0.00 0.00 0.00 0.00 0.00 0.00 0.00 0.00 0.00 0.00 0.00 0.00 0.00 0.00 0.00 0.00 0.00 0.00 0.00 0.00 0.00 0.00 0.00 0.00 0.00 0.00 0.00 0.00 0.00 0.00 0.00 0.00 0.00 0.00 0.00 0.00
0.00 0.00 0.00 0.00 0.00 0.00 0.00 0.00 0.00 0.00 0.00 0.00 0.00 0.00 0.00 0.00 0.00 0.00 0.00 0.00 0.00 0.00 0.00 0.00 0.00 0.00 0.00 0.00 0.00 0.00 0.00 0.00 0.00 0.00 0.00 0.00 0.00 0.00 0.00 0.00 0.00 0.00 0.00 0.00 0.00 0.00 0.00 0.00 0.00
0.00 0.00 0.00 0.00 0.00 0.00 0.00 0.00 0.00 0.00 0.00 0.00 0.00 0.00 0.00 0.00 0.00 0.00 0.00 0.00 0.00 0.00 0.00 0.00 0.00 0.00 0.00 0.00 0.00 0.00 0.00 0.00 0.00 0.00 0.00 0.00 0.00 0.00 0.00 0.00 0.00 0.00 0.00 0.00 0.00 0.00 0.00 0.00 0.00
0.00 0.00 0.00 0.00 0.00 0.00 0.00 0.02 0.01 0.01 0.00 0.00 0.00 0.00 0.00 0.00 0.00 0.00 0.00 0.00 0.00 0.00 0.00 0.00 0.00 0.00 0.00 0.00 0.00 0.00 0.00 0.00 0.00 0.00 0.00 0.00 0.00 0.00 0.00 0.00 0.00 0.00 0.00 0.00 0.00 0.00 0.00 0.00 0.00
0.00 0.00 0.00 0.01 0.02 0.01 0.02 0.02 0.01 0.00 0.00 0.00 0.00 0.00 0.00 0.00 0.00 0.00 0.00 0.00 0.00 0.00 0.00 0.00 0.00 0.00 0.00 0.00 0.00 0.00 0.00 0.00 0.00 0.00 0.00 0.00 0.00 0.00 0.00 0.00 0.00 0.00 0.00 0.00 0.00 0.00 0.00 0.00 0.00
0.00 0.00 0.00 0.00 0.00 0.00 0.00 0.00 0.00 0.00 0.00 0.00 0.00 0.00 0.00 0.00 0.00 0.00 0.00 0.00 0.00 0.00 0.00 0.00 0.00 0.00 0.00 0.00 0.00 0.00 0.00 0.00 0.00 0.00 0.00 0.00 0.00 0.00 0.00 0.00 0.00 0.00 0.00 0.00 0.00 0.00 0.00 0.00 0.00
0.00 0.00 0.00 0.00 0.00 0.00 0.00 0.00 0.00 0.00 0.00 0.00 0.00 0.00 0.00 0.00 0.00 0.00 0.00 0.00 0.00 0.00 0.00 0.00 0.00 0.00 0.00 0.00 0.00 0.00 0.00 0.00 0.00 0.00 0.00 0.00 0.00 0.00 0.00 0.00 0.00 0.00 0.00 0.00 0.00 0.00 0.00 0.00 0.00
0.00 0.00 0.00 0.00 0.00 0.00 0.00 0.00 0.00 0.00 0.00 0.00 0.00 0.00 0.00 0.00 0.00 0.00 0.00 0.00 0.00 0.00 0.00 0.00 0.00 0.00 0.00 0.00 0.00 0.00 0.00 0.00 0.00 0.00 0.00 0.00 0.00 0.00 0.00 0.00 0.00 0.01 0.00 0.00 0.00 0.00 0.00 0.00 0.00
0.00 0.00 0.00 0.00 0.00 0.00 0.00 0.00 0.00 0.00 0.00 0.00 0.00 0.00 0.00 0.00 0.00 0.00 0.00 0.00 0.00 0.00 0.00 0.00 0.00 0.00 0.00 0.00 0.00 0.00 0.00 0.00 0.00 0.00 0.00 0.00 0.00 0.00 0.00 0.00 0.00 0.00 0.00 0.00 0.00 0.00 0.00 0.00 0.00
0.00 0.00 0.00 0.00 0.00 0.00 0.00 0.00 0.00 0.00 0.00 0.00 0.00 0.00 0.00 0.00 0.00 0.00 0.00 0.00 0.00 0.00 0.00 0.00 0.00 0.00 0.00 0.00 0.00 0.00 0.00 0.00 0.00 0.00 0.00 0.00 0.00 0.00 0.00 0.00 0.00 0.00 0.00 0.00 0.00 0.00 0.00 0.00 0.00
MSLP
1012.33 1012.00 1012.51 1012.44 1012.99 1012.33 1011.30 1009.75 1008.37 1008.45 1008.52 1009.08 1009.38 1010.15 1012.05 1012.54 1013.53 1015.68 1016.37 1016.35 1017.07 1017.62 1017.74 1017.78 1018.04 1018.38 1018.65 1018.90 1019.12 1019.16 1019.36 1019.65 1019.94 1020.06 1020.16 1020.25 1020.34 1020.33 1020.43 1020.47 1020.68 1020.32 1020.27 1020.50 1020.39 1020.32 1020.44 1020.49 1020.57
1012.19 1011.90 1012.16 1012.25 1012.46 1011.96 1010.83 1010.04 1008.92 1008.88 1009.01 1009.16 1010.06 1011.21 1011.85 1013.80 1013.91 1015.13 1016.07 1016.69 1016.88 1017.49 1017.74 1018.06 1018.32 1018.64 1018.87 1019.05 1019.29 1019.38 1019.57 1019.97 1020.11 1020.16 1020.16 1020.43 1020.66 1020.65 1020.77 1020.85 1020.78 1020.62 1020.54 1020.67 1020.47 1020.53 1020.47 1020.60 1020.56
1012.27 1012.34 1012.54 1012.30 1011.76 1010.84 1010.15 1009.44 1009.01 1008.78 1008.77 1009.06 1010.43 1011.23 1012.79 1014.37 1014.58 1015.36 1016.21 1016.72 1017.24 1017.82 1018.05 1018.43 1018.61 1018.97 1019.21 1019.38 1019.51 1019.68 1019.98 1020.07 1020.22 1020.45 1020.49 1020.77 1020.81 1020.91 1020.91 1021.01 1020.93 1020.92 1020.95 1020.84 1020.77 1020.81 1020.68 1020.69 1020.61
1012.35 1012.34 1012.47 1012.13 1011.54 1009.67 1009.20 1009.17 1008.86 1008.84 1009.09 1009.53 1010.40 1012.97 1013.96 1014.35 1014.78 1015.41 1016.40 1016.89 1017.50 1018.27 1018.53 1018.86 1018.77 1019.21 1019.22 1019.50 1019.65 1019.95 1020.16 1020.34 1020.43 1020.65 1020.67 1020.89 1021.08 1021.24 1021.40 1021.39 1021.28 1021.13 1021.34 1021.12 1021.10 1021.01 1020.86 1020.78 1020.69
1012.53 1012.91 1012.79 1012.06 1011.31 1010.23 1009.14 1008.73 1008.89 1009.69 1010.21 1010.99 1011.38 1014.31 1014.96 1015.01 1014.77 1015.52 1016.37 1016.89 1017.80 1018.60 1018.74 1019.05 1019.13 1019.19 1019.45 1019.62 1019.86 1019.97 1020.13 1020.31 1020.53 1020.75 1020.94 1021.05 1021.23 1021.34 1021.46 1021.65 1021.71 1021.63 1021.64 1021.54 1021.39 1021.15 1020.99 1020.80 1020.64
1012.59 1012.73 1012.66 1012.02 1010.96 1009.97 1009.02 1008.73 1009.04 1009.75 1010.41 1011.86 1012.53 1014.06 1015.38 1015.42 1015.50 1015.85 1016.39 1017.09 1017.77 1018.53 1018.95 1019.01 1019.29 1019.32 1019.47 1019.78 1019.90 1020.09 1020.23 1020.49 1020.58 1020.81 1020.96 1021.13 1021.35 1021.48 1021.65 1021.56 1021.62 1021.63 1021.65 1021.55 1021.44 1021.06 1020.92 1020.81 1020.63
1012.56 1012.69 1012.52 1011.91 1011.02 1009.93 1009.12 1008.81 1009.38 1010.12 1010.73 1011.87 1012.55 1014.27 1015.51 1015.65 1015.77 1015.96 1016.55 1017.17 1017.73 1018.38 1018.77 1019.10 1019.22 1019.40 1019.55 1019.86 1020.00 1020.32 1020.17 1020.33 1020.45 1020.72 1021.08 1021.12 1021.53 1021.61 1021.45 1021.50 1021.35 1021.42 1021.45 1021.32 1021.40 1021.13 1020.95 1020.72 1020.59
1011.77 1012.05 1011.69 1011.05 1010.37 1010.12 1009.33 1009.70 1010.00 1010.35 1011.21 1011.99 1012.14 1014.22 1015.59 1015.47 1015.76 1016.09 1016.53 1017.09 1017.57 1018.04 1018.41 1019.04 1019.27 1019.65 1019.99 1020.00 1020.04 1020.12 1020.12 1020.44 1020.41 1020.57 1020.79 1020.97 1021.33 1021.40 1021.19 1021.28 1021.29 1021.32 1021.14 1021.26 1021.20 1020.93 1020.88 1020.79 1020.67
1011.23 1011.66 1011.30 1010.72 1010.06 1010.29 1009.59 1009.81 1010.27 1010.66 1011.32 1011.83 1012.09 1013.50 1014.72 1015.26 1015.79 1016.37 1016.93 1017.21 1017.59 1018.04 1018.31 1018.83 1019.24 1019.71 1019.87 1019.95 1019.98 1020.06 1020.01 1020.53 1020.37 1020.51 1020.57 1020.69 1021.10 1021.18 1021.14 1021.14 1021.24 1021.16 1021.09 1021.20 1021.02 1020.75 1020.65 1020.68 1020.52
1010.72 1010.91 1010.13 1009.11 1009.49 1010.10 1010.14 1010.19 1010.45 1011.44 1012.05 1013.01 1013.74 1014.25 1014.84 1015.31 1016.06 1016.51 1016.86 1017.31 1017.56 1017.88 1018.23 1018.42 1018.76 1019.39 1019.35 1019.31 1019.80 1020.11 1020.24 1020.40 1020.45 1020.45 1020.41 1020.64 1020.66 1020.82 1021.01 1021.02 1021.08 1020.90 1021.03 1021.05 1020.75 1020.62 1020.52 1020.52 1020.36
1009.25 1009.83 1009.82 1009.59 1009.35 1009.66 1010.28 1010.53 1010.63 1011.36 1012.37 1012.85 1014.03 1014.75 1015.28 1015.60 1016.06 1016.44 1016.62 1016.79 1016.95 1017.28 1017.85 1018.12 1018.07 1018.29 1018.44 1018.77 1019.40 1019.79 1020.20 1020.48 1020.86 1020.36 1020.26 1020.29 1020.32 1020.56 1020.85 1021.03 1021.04 1021.03 1020.90 1020.90 1020.58 1020.59 1020.49 1020.32 1020.15
1009.08 1009.24 1009.29 1009.63 1009.53 1009.60 1010.20 1010.54 1011.01 1011.20 1011.68 1012.22 1013.24 1013.98 1014.83 1015.68 1015.90 1015.88 1016.08 1016.37 1016.71 1017.14 1017.41 1017.76 1017.47 1017.93 1018.74 1018.87 1019.20 1019.52 1019.55 1020.10 1020.40 1020.26 1020.19 1020.38 1020.65 1020.58 1020.70 1020.81 1020.63 1020.70 1020.63 1020.73 1020.58 1020.48 1020.16 1020.03 1019.75
1008.99 1009.52 1009.60 1009.64 1009.82 1009.94 1010.13 1010.68 1011.04 1011.38 1011.59 1012.31 1013.15 1013.86 1014.47 1014.95 1015.29 1015.28 1015.37 1015.79 1016.16 1016.65 1016.94 1017.13 1017.23 1018.05 1018.54 1019.19 1019.52 1019.54 1019.67 1019.65 1019.97 1020.06 1020.05 1020.13 1020.49 1020.56 1020.58 1020.65 1020.60 1020.56 1020.44 1020.41 1020.29 1020.19 1020.01 1019.83 1019.55
1008.98 1009.53 1010.03 1010.06 1010.11 1010.15 1010.50 1010.79 1010.98 1011.75 1011.58 1012.55 1013.07 1013.65 1013.97 1014.34 1014.59 1014.86 1015.08 1015.39 1015.96 1015.97 1016.50 1017.61 1018.56 1018.67 1018.89 1018.66 1019.11 1019.56 1019.69 1019.55 1019.74 1019.96 1019.93 1019.98 1020.26 1020.53 1020.67 1020.70 1020.72 1020.61 1020.44 1020.36 1020.28 1020.14 1019.93 1019.75 1019.49
1009.04 1009.98 1010.30 1010.54 1010.55 1010.65 1010.88 1011.35 1011.21 1011.58 1011.62 1012.42 1012.84 1013.22 1013.46 1013.79 1014.17 1014.49 1014.61 1014.95 1015.71 1016.11 1016.71 1018.72 1018.15 1019.90 1018.83 1019.71 1018.88 1019.50 1019.72 1019.54 1019.90 1019.79 1019.69 1019.74 1019.89 1020.25 1020.42 1020.77 1020.94 1020.83 1020.58 1020.36 1020.13 1019.91 1019.76 1019.63 1019.14
1009.65 1010.25 1010.79 1010.67 1010.55 1010.74 1011.05 1011.44 1011.44 1011.28 1011.76 1012.46 1012.49 1012.84 1013.12 1013.59 1013.75 1014.19 1014.65 1014.91 1015.39 1016.20 1016.54 1017.36 1018.43 1019.79 1020.06 1019.97 1019.36 1019.35 1019.63 1019.73 1019.69 1019.90 1019.96 1019.99 1020.14 1020.38 1020.75 1020.86 1020.94 1020.87 1020.72 1020.54 1020.37 1020.31 1020.03 1019.76 1019.47
1010.18 1010.57 1010.94 1010.78 1010.45 1010.80 1011.05 1011.14 1011.14 1011.15 1011.54 1012.34 1012.65 1012.93 1013.28 1013.45 1013.86 1014.49 1014.90 1015.59 1015.74 1016.33 1016.76 1018.06 1018.89 1019.96 1020.25 1019.81 1019.24 1019.54 1019.51 1019.52 1019.73 1019.94 1020.14 1020.22 1020.30 1020.43 1020.61 1020.84 1020.93 1020.85 1020.95 1020.93 1020.90 1020.66 1020.47 1020.22 1019.75
1010.57 1010.36 1010.29 1010.60 1010.71 1010.62 1011.12 1011.53 1011.54 1011.44 1011.74 1012.13 1012.44 1013.20 1014.21 1015.01 1015.69 1016.07 1016.00 1016.20 1016.49 1017.10 1017.55 1018.27 1019.42 1019.93 1019.75 1019.36 1019.37 1019.91 1020.17 1020.20 1020.21 1020.29 1020.31 1020.21 1020.31 1020.40 1020.64 1020.67 1020.85 1020.79 1020.92 1021.02 1020.93 1020.80 1020.52 1020.31 1019.92
1010.21 1010.52 1010.89 1011.02 1010.90 1011.20 1011.50 1011.61 1012.02 1011.95 1011.90 1012.34 1013.32 1014.61 1015.48 1016.04 1016.72 1016.73 1017.07 1017.16 1017.45 1018.02 1018.11 1018.58 1019.09 1019.49 1019.68 1019.84 1020.25 1020.49 1020.80 1020.63 1020.44 1020.70 1020.59 1020.67 1020.82 1020.71 1020.78 1021.13 1021.06 1020.97 1021.10 1021.26 1021.20 1021.02 1020.84 1020.59 1020.09
1010.40 1010.84 1011.68 1011.72 1011.62 1011.74 1012.02 1012.42 1012.49 1012.43 1012.73 1013.09 1014.44 1015.35 1016.02 1016.68 1017.19 1017.75 1018.13 1018.22 1018.62 1019.03 1019.24 1019.45 1019.87 1020.17 1020.42 1020.47 1020.65 1020.81 1020.95 1020.90 1021.13 1021.10 1021.18 1021.31 1021.35 1021.55 1021.37 1021.46 1021.37 1021.24 1021.42 1021.38 1021.28 1021.08 1020.90 1020.65 1020.50
1011.52 1011.82 1012.16 1012.46 1012.29 1012.22 1012.62 1013.33 1013.31 1013.20 1013.44 1014.02 1015.22 1016.02 1016.59 1017.26 1017.96 1018.55 1019.08 1019.59 1019.72 1020.03 1020.24 1020.23 1020.51 1020.71 1020.87 1021.00 1020.99 1021.00 1021.09 1021.29 1021.43 1021.49 1021.66 1021.92 1021.89 1021.90 1021.81 1021.67 1021.73 1021.72 1021.61 1021.58 1021.30 1021.02 1020.99 1021.00 1020.98
1012.05 1012.46 1012.80 1013.13 1013.53 1013.58 1013.20 1014.40 1014.06 1013.97 1014.52 1015.01 1015.98 1016.73 1017.40 1017.98 1018.62 1019.09 1019.73 1020.40 1020.68 1020.84 1020.71 1020.79 1020.96 1020.91 1021.03 1021.15 1021.41 1021.82 1022.26 1022.43 1022.45 1022.47 1022.61 1022.59 1022.37 1022.19 1021.96 1022.02 1021.87 1021.71 1021.61 1021.59 1021.36 1021.18 1021.22 1021.13 1021.31
1012.75 1012.90 1013.29 1013.76 1014.33 1014.59 1013.98 1014.48 1014.76 1014.58 1015.36 1015.94 1016.57 1017.24 1017.95 1018.41 1019.05 1019.80 1020.16 1020.64 1020.93 1021.16 1021.21 1021.01 1021.17 1021.54 1021.43 1021.34 1021.57 1022.03 1022.50 1022.66 1022.77 1022.89 1022.99 1023.05 1022.88 1022.62 1022.48 1022.35 1022.34 1022.37 1022.30 1022.14 1021.97 1021.73 1021.67 1021.78 1021.94
1012.70 1013.23 1013.66 1014.39 1015.22 1015.95 1015.69 1015.19 1015.69 1015.27 1015.48 1016.22 1016.85 1017.50 1018.24 1018.74 1019.34 1019.73 1020.15 1020.59 1020.98 1021.04 1021.09 1021.28 1021.42 1021.64 1021.89 1022.02 1022.24 1022.51 1022.83 1023.10 1023.29 1023.39 1023.49 1023.41 1023.27 1023.21 1023.04 1022.90 1022.61 1022.47 1022.55 1022.47 1022.40 1022.30 1022.09 1021.96 1022.10
1013.14 1013.89 1015.08 1016.35 1017.10 1017.52 1016.19 1016.03 1016.68 1015.85 1015.52 1015.95 1017.10 1018.13 1018.83 1019.22 1019.79 1020.26 1020.53 1020.76 1021.00 1021.19 1021.28 1021.41 1021.49 1021.70 1021.94 1022.18 1022.45 1022.74 1023.03 1023.21 1023.48 1023.53 1023.59 1023.53 1023.47 1023.39 1023.40 1023.06 1023.01 1022.85 1022.75 1022.64 1022.50 1022.45 1022.43 1022.37 1022.01
1013.78 1014.71 1016.36 1017.93 1019.18 1018.73 1017.30 1017.39 1017.66 1016.64 1016.85 1017.27 1017.66 1018.26 1018.79 1019.31 1019.72 1020.09 1020.13 1020.47 1020.97 1021.18 1021.26 1021.37 1021.49 1021.50 1021.84 1022.15 1022.50 1022.73 1022.86 1023.02 1023.18 1023.26 1023.23 1023.34 1023.68 1023.59 1023.37 1023.22 1023.00 1022.87 1022.76 1022.77 1022.68 1022.53 1022.33 1022.00 1021.79
1014.37 1015.37 1016.35 1018.21 1019.63 1020.13 1018.90 1018.59 1017.59 1017.26 1017.33 1017.79 1018.28 1018.69 1019.28 1019.55 1019.91 1020.19 1020.68 1020.98 1021.31 1021.42 1021.47 1021.58 1021.71 1021.89 1021.99 1022.37 1022.52 1022.69 1022.86 1023.00 1023.03 1022.98 1023.27 1023.47 1023.54 1023.13 1023.22 1023.14 1022.95 1022.70 1022.54 1022.39 1022.37 1022.25 1021.99 1021.81 1021.68
1014.62 1015.54 1016.92 1018.71 1020.75 1021.20 1020.00 1019.21 1018.34 1018.04 1018.04 1018.25 1018.61 1019.10 1019.65 1020.13 1020.66 1020.99 1021.30 1021.56 1021.74 1021.85 1021.93 1021.95 1021.78 1022.00 1022.13 1022.32 1022.44 1022.60 1022.59 1022.62 1022.74 1023.02 1023.19 1023.16 1023.13 1022.98 1023.00 1022.94 1022.75 1022.48 1022.29 1022.17 1022.16 1022.11 1021.80 1021.58 1021.41
1015.36 1016.08 1017.50 1019.10 1021.02 1022.02 1021.67 1020.32 1018.63 1018.65 1018.63 1019.15 1019.68 1019.71 1020.30 1020.86 1021.21 1021.54 1021.66 1021.88 1021.98 1022.05 1022.02 1022.08 1022.20 1022.27 1022.31 1022.31 1022.29 1022.17 1022.15 1022.19 1022.28 1022.36 1022.45 1022.47 1022.43 1022.52 1022.63 1022.60 1022.44 1022.35 1022.15 1021.94 1021.83 1021.62 1021.31 1021.25 1021.23
1015.78 1016.68 1018.00 1020.37 1022.05 1022.67 1022.43 1020.80 1019.09 1019.03 1019.15 1019.43 1020.02 1020.41 1020.75 1021.05 1021.43 1021.79 1022.00 1022.34 1022.58 1022.52 1022.31 1022.31 1022.44 1022.39 1022.26 1022.02 1021.96 1021.96 1021.93 1021.96 1022.00 1021.89 1021.81 1021.74 1022.00 1022.05 1022.07 1022.05 1022.14 1022.05 1021.96 1021.82 1021.69 1021.61 1021.66 1021.58 1021.64
Thickness
5738 5744 5744 5739 5711 5712 5707 5729 5756 5744 5746 5757 5761 5752 5729 5727 5714 5684 5715 5718 5711 5705 5703 5702 5699 5694 5690 5687 5684 5682 5680 5676 5673 5671 5669 5667 5664 5663 5662 5660 5657 5659 5658 5655 5653 5652 5649 5647 5645
5736 5743 5738 5728 5701 5691 5700 5728 5729 5742 5750 5759 5755 5743 5732 5708 5725 5714 5710 5714 5708 5703 5701 5697 5694 5689 5686 5684 5681 5679 5676 5672 5671 5670 5669 5666 5663 5661 5659 5657 5656 5656 5654 5652 5652 5649 5648 5645 5645
5731 5733 5717 5708 5701 5691 5703 5731 5732 5750 5758 5756 5738 5742 5728 5708 5718 5711 5712 5711 5701 5698 5696 5692 5689 5684 5681 5679 5677 5676 5673 5671 5669 5667 5666 5663 5660 5658 5657 5655 5654 5653 5650 5650 5649 5647 5646 5644 5643
5720 5719 5715 5695 5692 5718 5725 5729 5740 5745 5747 5751 5743 5709 5719 5721 5711 5710 5710 5704 5700 5693 5691 5687 5686 5681 5681 5678 5677 5674 5671 5670 5668 5665 5664 5661 5657 5654 5651 5651 5649 5649 5645 5646 5645 5644 5644 5643 5642
5717 5705 5690 5689 5695 5719 5732 5740 5739 5728 5726 5723 5726 5695 5694 5708 5715 5712 5707 5702 5695 5689 5688 5685 5683 5683 5679 5677 5674 5674 5673 5671 5667 5664 5661 5658 5655 5652 5650 5648 5645 5644 5642 5641 5641 5642 5641 5641 5641
5699 5703 5678 5678 5701 5722 5732 5741 5738 5729 5728 5715 5709 5699 5690 5705 5704 5705 5703 5697 5693 5689 5686 5685 5682 5682 5680 5676 5675 5673 5670 5667 5665 5662 5659 5655 5652 5648 5646 5645 5643 5640 5638 5638 5637 5640 5639 5639 5639
5697 5688 5677 5683 5693 5711 5728 5744 5727 5721 5717 5709 5714 5690 5691 5695 5701 5702 5700 5696 5693 5689 5687 5684 5683 5681 5680 5676 5673 5670 5670 5668 5664 5660 5655 5652 5648 5645 5644 5641 5641 5638 5636 5636 5633 5634 5635 5635 5634
5702 5695 5689 5696 5700 5698 5729 5729 5726 5719 5707 5718 5721 5688 5680 5697 5703 5701 5700 5697 5695 5691 5690 5685 5682 5677 5672 5672 5670 5668 5668 5663 5660 5658 5654 5649 5647 5643 5641 5639 5637 5634 5634 5632 5630 5631 5630 5629 5628
5715 5683 5680 5691 5696 5701 5728 5718 5724 5728 5714 5715 5721 5709 5703 5704 5702 5698 5694 5694 5694 5691 5689 5683 5679 5673 5671 5670 5668 5666 5664 5658 5657 5654 5652 5648 5644 5641 5638 5635 5632 5630 5629 5626 5626 5626 5625 5624 5623
5698 5679 5697 5718 5711 5703 5712 5710 5718 5703 5700 5697 5699 5705 5705 5703 5698 5693 5691 5689 5689 5687 5687 5683 5679 5674 5672 5670 5666 5663 5659 5656 5652 5649 5647 5644 5642 5639 5634 5633 5629 5628 5624 5622 5622 5621 5620 5619 5618
5714 5691 5711 5712 5718 5717 5707 5709 5718 5698 5689 5698 5691 5694 5697 5697 5695 5692 5693 5693 5691 5690 5685 5682 5682 5679 5679 5676 5669 5662 5655 5651 5646 5646 5643 5640 5637 5633 5628 5625 5622 5621 5619 5617 5617 5614 5614 5614 5613
5699 5709 5714 5717 5719 5717 5709 5713 5708 5708 5705 5714 5710 5708 5701 5694 5694 5696 5695 5695 5691 5688 5687 5685 5686 5682 5672 5667 5663 5656 5655 5648 5644 5643 5639 5635 5631 5629 5624 5619 5618 5615 5614 5611 5609 5608 5607 5607 5607
5701 5706 5713 5718 5716 5717 5719 5711 5709 5705 5714 5716 5712 5708 5703 5700 5698 5701 5701 5701 5696 5691 5691 5689 5684 5673 5666 5659 5654 5650 5648 5645 5640 5638 5634 5631 5627 5623 5619 5615 5612 5609 5606 5603 5603 5602 5601 5601 5602
5712 5708 5705 5713 5715 5718 5710 5709 5713 5707 5717 5709 5709 5704 5704 5703 5703 5701 5699 5696 5692 5693 5690 5680 5664 5656 5657 5661 5654 5646 5643 5639 5636 5633 5630 5626 5622 5615 5611 5606 5603 5600 5599 5596 5595 5595 5595 5595 5595
5713 5698 5702 5705 5708 5707 5713 5696 5699 5710 5716 5708 5706 5706 5706 5706 5706 5703 5702 5698 5692 5687 5684 5663 5667 5646 5654 5648 5649 5642 5637 5634 5627 5626 5623 5621 5616 5607 5604 5596 5591 5589 5588 5587 5586 5586 5585 5585 5588
5702 5696 5674 5700 5707 5709 5702 5672 5702 5713 5708 5702 5707 5706 5705 5703 5704 5704 5700 5696 5693 5684 5681 5669 5657 5645 5639 5638 5637 5636 5630 5624 5621 5614 5610 5607 5605 5600 5592 5587 5582 5579 5578 5576 5576 5574 5573 5572 5572
5690 5666 5677 5688 5708 5706 5699 5686 5704 5712 5710 5700 5699 5701 5700 5697 5698 5695 5696 5689 5686 5680 5676 5664 5654 5641 5635 5634 5633 5626 5623 5619 5612 5604 5598 5592 5587 5583 5581 5576 5571 5569 5565 5561 5560 5559 5557 5556 5558
5672 5680 5685 5681 5702 5708 5698 5691 5699 5708 5708 5705 5707 5695 5687 5680 5676 5680 5682 5682 5677 5670 5666 5658 5643 5633 5633 5631 5627 5618 5612 5606 5599 5594 5590 5585 5580 5577 5571 5565 5560 5556 5553 5550 5547 5545 5544 5542 5541
5697 5691 5680 5687 5703 5699 5695 5692 5690 5697 5703 5703 5689 5680 5675 5672 5670 5671 5669 5668 5665 5657 5656 5650 5642 5634 5628 5621 5611 5605 5597 5593 5590 5580 5574 5569 5565 5563 5560 5553 5548 5545 5541 5534 5529 5526 5524 5523 5520
5698 5688 5673 5687 5700 5695 5688 5685 5688 5694 5694 5688 5679 5673 5669 5665 5663 5660 5657 5654 5649 5645 5642 5637 5629 5621 5614 5608 5603 5596 5590 5585 5577 5570 5563 5557 5553 5546 5541 5536 5533 5529 5523 5517 5513 5509 5507 5504 5496
5677 5672 5674 5676 5687 5694 5685 5667 5672 5687 5686 5682 5673 5670 5667 5661 5655 5652 5646 5638 5634 5630 5626 5622 5616 5610 5602 5596 5592 5588 5582 5574 5567 5560 5552 5544 5537 5530 5524 5520 5515 5509 5504 5498 5493 5489 5484 5480 5475
5667 5682 5679 5675 5665 5647 5679 5636 5658 5667 5665 5666 5660 5655 5653 5651 5648 5645 5633 5625 5620 5616 5616 5611 5604 5600 5595 5588 5579 5571 5563 5556 5549 5543 5536 5528 5521 5515 5509 5502 5497 5493 5486 5479 5473 5466 5458 5454 5448
5668 5681 5675 5672 5659 5657 5663 5643 5645 5656 5647 5647 5648 5649 5642 5639 5635 5630 5625 5621 5614 5609 5604 5599 5590 5582 5579 5578 5573 5563 5554 5545 5538 5529 5521 5512 5505 5498 5491 5483 5477 5470 5461 5454 5448 5440 5433 5426 5419
5681 5671 5669 5665 5653 5615 5644 5644 5631 5640 5645 5641 5645 5642 5634 5627 5623 5619 5615 5611 5606 5602 5595 5587 5580 5571 5563 5558 5551 5544 5539 5532 5524 5515 5505 5496 5488 5476 5464 5456 5451 5443 5434 5425 5418 5410 5404 5399 5391
5669 5651 5609 5609 5597 5600 5648 5640 5622 5642 5648 5643 5633 5625 5621 5616 5610 5606 5600 5596 5590 5587 5583 5577 5572 5565 5556 5549 5541 5532 5522 5514 5504 5495 5485 5477 5466 5453 5442 5433 5426 5419 5410 5402 5396 5388 5379 5370 5365
5655 5650 5595 5606 5584 5598 5639 5616 5613 5638 5636 5629 5624 5618 5616 5612 5608 5601 5602 5594 5583 5574 5569 5565 5560 5556 5548 5540 5531 5523 5515 5505 5495 5483 5472 5459 5444 5433 5423 5411 5404 5395 5386 5377 5369 5362 5354 5346 5338
5648 5626 5650 5611 5607 5584 5612 5619 5628 5632 5629 5626 5615 5607 5600 5600 5599 5597 5586 5578 5572 5567 5562 5556 5550 5544 5538 5528 5519 5510 5498 5487 5476 5466 5451 5436 5423 5413 5401 5388 5378 5369 5361 5352 5343 5334 5326 5319 5312
5651 5654 5611 5599 5588 5595 5606 5604 5599 5612 5613 5614 5609 5603 5595 5590 5583 5576 5569 5564 5558 5553 5548 5542 5538 5531 5522 5513 5501 5489 5480 5469 5458 5445 5430 5417 5404 5394 5382 5369 5356 5346 5334 5325 5317 5310 5306 5302 5296
5634 5629 5628 5620 5588 5569 5561 5582 5618 5603 5603 5597 5592 5590 5583 5576 5572 5568 5563 5557 5552 5546 5541 5534 5525 5516 5508 5499 5489 5478 5466 5453 5441 5429 5415 5398 5387 5374 5361 5348 5336 5324 5316 5309 5301 5295 5294 5289 5282
5646 5632 5624 5575 5588 5564 5552 5572 5611 5596 5595 5588 5581 5578 5576 5572 5567 5559 5554 5545 5537 5531 5527 5520 5510 5502 5493 5485 5474 5461 5448 5435 5423 5415 5401 5384 5370 5355 5342 5330 5318 5308 5299 5292 5286 5281 5276 5271 5265